User: anonymous   Login
Location: Vancouver
(49.2500°N, 123.1330°W)
Time: 22:00:43
(UTC-07:00)
Language:

BREEZE-M DEB (TANK) - Orbit

View from above orbital plane
View from above orbital plane
View from above satellite
View from above satellite

Ground track
Ground track

The orbit data is extracted from the following two-line orbital elements,

1 27821U 03024B   15110.21854958  .00011960  00000-0  15998-2 0  9990
2 27821 049.5808 257.3920 4983751 153.0218 274.0161 05.66430859235312
Epoch (UTC): 20 April 2015 05:14:42
Eccentricity: 0.4983751
inclination: 49.5808°
perigee height: 290 km
apogee height: 13540 km
right ascension of ascending node: 257.3920°
argument of perigee: 153.0218°
revolutions per day: 5.66430859
mean anomaly at epoch: 274.0161°
orbit number at epoch: 23531

The dashed part of the orbit path shows where the satellite is in the earth's shadow,  

DLR